FLOCK 3K-4 (43893 NORAD) Tracking and Keplerian Element Data

This shows tracking and keplerian element data for the satellite.

Feedback or suggestion? Click here.




ElementValue
Catalog43893
NameFLOCK 3K-4
Epoch Orbit21782
Epoch Day325.15116725
Epoch Year2022
RAAN214.7989
Inclination97.1625
Eccentricity0.0006332
Argument of Perigee140.5162
Mean Anonmoly219.6562
Mean Motion15.68829587
Decay Rate0.00321362
L11 43893U 18111T 22325.15116725 .00321362 00000+0 27079-2 0 9994
L22 43893 97.1625 214.7989 0006332 140.5162 219.6562 15.68829587217822



Live tracking and technical data element details for FLOCK 3K-4 (NORAD 43893). FLOCK 3K-4 can be tracked NOW for your location showing map with azimuth and elevation plus other details from your city location.







IsCatalogInMostPopularTable: catalog: 43893, numindb: 511
Update: records affected: 1



GetName: 43893 FLOCK 3K-4

Hit Count: updated at: Mon, 18 May 2026 09:50:25 GMT